User: anonymous   Login
Location: Drocourt
(49.0571°N, 1.7669°E)
Time: 18:14:19
(UTC+00:00)
Language:

Explorer 11/Cluster Stage 4 - Orbit

View from above orbital plane
View from above orbital plane
View from above satellite
View from above satellite

Ground track
Ground track

The orbit data is extracted from the following two-line orbital elements,

1 00107U 61013A   24109.59304927  .00005836  00000-0  73747-3 0  9997
2 00107  28.7872 167.1470 0522662 349.7769   9.2520 14.14956179164240
Epoch (UTC): 18 April 2024 14:13:59
Eccentricity: 0.0522662
inclination: 28.7872°
perigee height: 465 km
apogee height: 1220 km
right ascension of ascending node: 167.1470°
argument of perigee: 349.7769°
revolutions per day: 14.14956179
mean anomaly at epoch: 9.2520°
orbit number at epoch: 16424

The dashed part of the orbit path shows where the satellite is in the earth's shadow,  

DLR